Location: Sternwarte_Laufen
(47.9344°N, 12.9346°E)
Time: 19:38:21
(UTC+02:00)

ISS - Visible Passes

Search period start: 17 May 2021 00:00
Search period end: 27 May 2021 00:00
Orbit: 417 x 422 km, 51.6° (Epoch: 17 May)

Date Brightness Start Highest point End Pass type
(mag) Time Alt. Az. Time Alt. Az. Time Alt. Az.
17 May -2.5 00:30:06 10° WNW 00:33:21 42° N 00:36:35 10° ENE visible
17 May -3.5 02:07:05 10° WNW 02:10:28 69° NNE 02:13:50 10° ESE visible
17 May -2.9 03:44:08 10° W 03:47:05 28° SW 03:50:01 10° SSE visible
17 May -3.9 22:05:25 10° WSW 22:08:47 79° SSE 22:12:10 10° ENE visible
17 May -2.6 23:42:33 10° W 23:45:47 44° N 23:49:03 10° ENE visible
18 May -3.1 01:19:37 10° WNW 01:22:53 55° N 01:22:53 55° N visible
18 May -3.6 21:18:05 10° SW 21:21:22 54° SSE 21:24:40 10° ENE visible
18 May -2.8 22:54:57 10° W 22:58:15 49° N 23:01:33 10° ENE visible
19 May -2.8 00:32:08 10° WNW 00:35:25 47° N 00:36:27 34° ENE visible
19 May -1.2 02:09:00 10° WNW 02:09:22 13° WNW 02:09:22 13° WNW visible
19 May -3.1 22:07:23 10° W 22:10:43 59° NNW 22:14:03 10° ENE visible
19 May -2.6 23:44:37 10° WNW 23:47:52 43° N 23:50:16 16° ENE visible
20 May -2.1 01:21:31 10° WNW 01:23:12 27° WNW 01:23:12 27° WNW visible
20 May -3.5 21:19:51 10° WSW 21:23:12 76° NNW 21:26:35 10° ENE visible
20 May -2.5 22:57:04 10° WNW 23:00:17 42° N 23:03:32 10° ENE visible
21 May -3.4 00:34:02 10° WNW 00:37:06 64° NNW 00:37:06 64° NNW visible
21 May -2.6 22:09:29 10° W 22:12:44 44° N 22:15:59 10° ENE visible
21 May -3.1 23:46:34 10° WNW 23:49:54 55° NNE 23:51:03 34° ENE visible
22 May -1.2 01:23:28 10° WNW 01:23:59 13° WNW 01:23:59 13° WNW visible
22 May -2.7 21:21:53 10° W 21:25:10 49° N 21:28:28 10° ENE visible
22 May -2.8 22:59:04 10° WNW 23:02:20 47° N 23:05:02 14° E visible
23 May -2.5 00:35:55 10° WNW 00:37:58 33° W 00:37:58 33° W visible
23 May -2.6 22:11:32 10° WNW 22:14:46 43° N 22:18:01 10° ENE visible
23 May -3.9 23:48:25 10° WNW 23:51:48 88° SSW 23:51:59 80° SE visible
24 May -2.5 21:23:58 10° WNW 21:27:12 42° N 21:30:25 10° ENE visible
24 May -3.6 23:00:56 10° WNW 23:04:18 70° NNE 23:06:01 26° E visible
25 May -1.5 00:38:00 10° W 00:38:57 16° W 00:38:57 16° W visible
25 May -3.1 22:13:27 10° WNW 22:16:46 55° NNE 22:20:04 10° E visible
25 May -2.9 23:50:21 10° WNW 23:53:01 37° WSW 23:53:01 37° WSW visible
26 May -3.7 23:02:48 10° WNW 23:06:08 62° SSW 23:07:06 40° SSE visible
